| time (UTC) | temp F | wind direction | speed MPH | gust MPH | rain 1hr in | rain 24hr in | rain mn in | humidity % | barometer mb |
| 20260507200032 | 61 | 284 | 1.0 | 8.0 | 0.00 | 0.00 | 0.00 | 53 | 1011.5 |
| 20260507194531 | 62 | 218 | 4.0 | 9.0 | 0.00 | 0.00 | 0.00 | 47 | 1011.7 |
| 20260507193030 | 61 | 204 | 1.0 | 6.0 | 0.00 | 0.00 | 0.00 | 56 | 1011.8 |
| 20260507191530 | 62 | 216 | 2.0 | 4.0 | 0.00 | 0.00 | 0.00 | 51 | 1011.9 |
| 20260507190027 | 62 | 191 | 2.0 | 10.0 | 0.00 | 0.00 | 0.00 | 51 | 1012.1 |
| 20260507184524 | 61 | 205 | 2.0 | 8.0 | 0.00 | 0.00 | 0.00 | 57 | 1012.1 |
| 20260507183022 | 61 | 224 | 3.0 | 9.0 | 0.00 | 0.00 | 0.00 | 58 | 1012.3 |
| 20260507181518 | 59 | 278 | 2.0 | 7.0 | 0.00 | 0.00 | 0.00 | 58 | 1012.3 |
| 20260507180017 | 59 | 220 | 1.0 | 5.0 | 0.00 | 0.00 | 0.00 | 57 | 1012.4 |
| 20260507174538 | 59 | 270 | 1.0 | 4.0 | 0.00 | 0.00 | 0.00 | 54 | 1012.5 |
| 20260507173021 | 58 | 234 | 1.0 | 9.0 | 0.00 | 0.00 | 0.00 | 57 | 1012.6 |
| 20260507171518 | 58 | 230 | 3.0 | 8.0 | 0.00 | 0.00 | 0.00 | 55 | 1012.7 |
| 20260507170012 | 59 | 186 | 1.0 | 9.0 | 0.00 | 0.00 | 0.00 | 57 | 1012.9 |
| 20260507164512 | 58 | 193 | 1.0 | 7.0 | 0.00 | 0.00 | 0.00 | 57 | 1013.1 |
| 20260507163011 | 58 | 201 | 4.0 | 10.0 | 0.00 | 0.00 | 0.00 | 59 | 1013.2 |
| 20260507161509 | 58 | 233 | 1.0 | 7.0 | 0.00 | 0.00 | 0.00 | 56 | 1013.3 |
| 20260507160008 | 58 | 195 | 1.0 | 5.0 | 0.00 | 0.00 | 0.00 | 59 | 1013.5 |
| 20260507154503 | 57 | 274 | 1.0 | 5.0 | 0.00 | 0.00 | 0.00 | 58 | 1013.8 |
| 20260507153001 | 57 | 214 | 3.0 | 8.0 | 0.00 | 0.00 | 0.00 | 58 | 1013.8 |
| 20260507151601 | 56 | 197 | 4.0 | 8.0 | 0.00 | 0.00 | 0.00 | 58 | 1014.0 |
| 20260507150058 | 56 | 243 | 1.0 | 9.0 | 0.00 | 0.00 | 0.00 | 59 | 1014.2 |
| 20260507144555 | 56 | 266 | 1.0 | 4.0 | 0.00 | 0.00 | 0.00 | 63 | 1014.5 |
| 20260507143100 | 56 | 205 | 1.0 | 4.0 | 0.00 | 0.00 | 0.00 | 65 | 1014.7 |
| 20260507141602 | 54 | 253 | 1.0 | 5.0 | 0.00 | 0.00 | 0.00 | 66 | 1014.9 |
| 20260507140052 | 52 | 199 | 2.0 | 9.0 | 0.00 | 0.00 | 0.00 | 70 | 1015.0 |
| 20260507134542 | 50 | 204 | 3.0 | 7.0 | 0.00 | 0.03 | 0.00 | 70 | 1015.2 |
| 20260507133040 | 50 | 179 | 1.0 | 7.0 | 0.00 | 0.03 | 0.00 | 74 | 1015.2 |
| 20260507131605 | 48 | 182 | 5.0 | 8.0 | 0.00 | 0.03 | 0.00 | 73 | 1015.2 |
| 20260507130034 | 48 | 209 | 2.0 | 6.0 | 0.00 | 0.03 | 0.00 | 78 | 1015.2 |
| 20260507124532 | 46 | 207 | 2.0 | 6.0 | 0.00 | 0.06 | 0.00 | 81 | 1015.3 |
| 20260507123038 | 43 | 178 | 3.0 | 6.0 | 0.00 | 0.06 | 0.00 | 83 | 1015.4 |
| 20260507121528 | 41 | 191 | 2.0 | 4.0 | 0.00 | 0.06 | 0.00 | 87 | 1015.3 |
| 20260507120032 | 40 | 200 | 1.0 | 3.0 | 0.00 | 0.06 | 0.00 | 89 | 1015.4 |
| 20260507114528 | 39 | 268 | 0.0 | 2.0 | 0.00 | 0.10 | 0.00 | 89 | 1015.4 |
| 20260507113057 | 36 | 293 | 0.0 | 0.0 | 0.00 | 0.10 | 0.00 | 89 | 1015.3 |
| 20260507111531 | 34 | 293 | 0.0 | 0.0 | 0.00 | 0.10 | 0.00 | 88 | 1015.2 |
| 20260507110026 | 33 | 293 | 0.0 | 0.0 | 0.00 | 0.10 | 0.00 | 87 | 1015.1 |
| 20260507104525 | 33 | 294 | 0.0 | 0.0 | 0.00 | 0.19 | 0.00 | 87 | 1015.1 |
| 20260507103025 | 33 | 293 | 0.0 | 0.0 | 0.00 | 0.19 | 0.00 | 87 | 1014.9 |
| 20260507101526 | 33 | 293 | 0.0 | 0.0 | 0.00 | 0.19 | 0.00 | 86 | 1014.7 |
| 20260507100033 | 33 | 293 | 0.0 | 0.0 | 0.00 | 0.19 | 0.00 | 86 | 1014.5 |
| 20260507094521 | 34 | 293 | 0.0 | 0.0 | 0.00 | 0.30 | 0.00 | 86 | 1014.6 |
| 20260507093019 | 34 | 293 | 0.0 | 0.0 | 0.00 | 0.30 | 0.00 | 86 | 1014.6 |
| 20260507091520 | 35 | 293 | 0.0 | 0.0 | 0.00 | 0.30 | 0.00 | 86 | 1014.6 |
| 20260507090015 | 35 | 293 | 0.0 | 0.0 | 0.00 | 0.30 | 0.00 | 85 | 1014.6 |
| 20260507084534 | 36 | 293 | 0.0 | 0.0 | 0.00 | 0.35 | 0.00 | 85 | 1014.6 |
| 20260507083020 | 36 | 294 | 0.0 | 0.0 | 0.00 | 0.35 | 0.00 | 84 | 1014.6 |
| 20260507081510 | 37 | 294 | 0.0 | 0.0 | 0.00 | 0.35 | 0.00 | 84 | 1014.5 |
| 20260507080008 | 37 | 294 | 0.0 | 0.0 | 0.00 | 0.35 | 0.00 | 84 | 1014.5 |
| 20260507074505 | 38 | 295 | 0.0 | 0.0 | 0.00 | 0.36 | 0.00 | 83 | 1014.5 |
| 20260507073002 | 39 | 293 | 0.0 | 0.0 | 0.00 | 0.36 | 0.00 | 83 | 1014.7 |
| 20260507071600 | 39 | 293 | 0.0 | 0.0 | 0.00 | 0.36 | 0.00 | 82 | 1014.6 |
| 20260507070108 | 40 | 293 | 0.0 | 2.0 | 0.00 | 0.36 | 0.00 | 82 | 1014.6 |
| 20260507064559 | 41 | 293 | 0.0 | 0.0 | 0.00 | 0.41 | 0.00 | 81 | 1014.6 |
| 20260507063055 | 42 | 294 | 0.0 | 0.0 | 0.00 | 0.41 | 0.00 | 80 | 1014.6 |
| 20260507061549 | 43 | 292 | 0.0 | 0.0 | 0.00 | 0.41 | 0.00 | 80 | 1014.7 |
| 20260507060047 | 43 | 292 | 0.0 | 0.0 | 0.00 | 0.41 | 0.00 | 79 | 1014.8 |
| 20260507054545 | 44 | 292 | 0.0 | 0.0 | 0.00 | 0.45 | 0.00 | 78 | 1014.9 |
| 20260507053042 | 44 | 293 | 0.0 | 0.0 | 0.00 | 0.45 | 0.00 | 75 | 1015.2 |
| 20260507051540 | 44 | 293 | 0.0 | 2.0 | 0.00 | 0.45 | 0.00 | 74 | 1015.4 |
| 20260507050100 | 44 | 335 | 0.0 | 4.0 | 0.00 | 0.45 | 0.00 | 73 | 1015.3 |
| 20260507044549 | 45 | 320 | 0.0 | 4.0 | 0.00 | 0.45 | 0.00 | 72 | 1015.3 |
| 20260507043036 | 45 | 299 | 0.0 | 3.0 | 0.00 | 0.45 | 0.00 | 71 | 1015.3 |
| 20260507041535 | 45 | 301 | 1.0 | 4.0 | 0.00 | 0.45 | 0.00 | 72 | 1015.2 |
| 20260507040032 | 45 | 330 | 0.0 | 4.0 | 0.00 | 0.45 | 0.00 | 72 | 1015.3 |
| 20260507034536 | 46 | 313 | 1.0 | 4.0 | 0.00 | 0.45 | 0.45 | 70 | 1015.1 |
| 20260507033036 | 46 | 335 | 3.0 | 5.0 | 0.00 | 0.45 | 0.45 | 70 | 1015.0 |
| 20260507031531 | 46 | 289 | 0.0 | 2.0 | 0.00 | 0.45 | 0.45 | 72 | 1015.0 |
| 20260507030026 | 46 | 294 | 1.0 | 3.0 | 0.00 | 0.45 | 0.45 | 70 | 1014.8 |
| 20260507024522 | 46 | 282 | 0.0 | 3.0 | 0.00 | 0.45 | 0.45 | 70 | 1014.6 |
| 20260507023020 | 46 | 340 | 1.0 | 3.0 | 0.00 | 0.45 | 0.45 | 70 | 1014.5 |
| 20260507021533 | 47 | 4 | 1.0 | 4.0 | 0.00 | 0.45 | 0.45 | 69 | 1014.5 |
| 20260507020023 | 47 | 8 | 0.0 | 3.0 | 0.00 | 0.45 | 0.45 | 69 | 1014.2 |
| 20260507014521 | 47 | 41 | 1.0 | 4.0 | 0.00 | 0.45 | 0.45 | 67 | 1014.2 |
| 20260507013016 | 48 | 31 | 2.0 | 5.0 | 0.00 | 0.45 | 0.45 | 65 | 1014.0 |
| 20260507011520 | 48 | 61 | 3.0 | 7.0 | 0.00 | 0.45 | 0.45 | 67 | 1014.2 |
| 20260507010027 | 49 | 54 | 2.0 | 5.0 | 0.00 | 0.45 | 0.45 | 67 | 1014.4 |
| 20260507004513 | 49 | 326 | 3.0 | 6.0 | 0.00 | 0.45 | 0.45 | 66 | 1014.3 |
| 20260507003010 | 49 | 335 | 1.0 | 8.0 | 0.00 | 0.45 | 0.45 | 67 | 1014.1 |
| 20260507001510 | 50 | 21 | 3.0 | 8.0 | 0.00 | 0.45 | 0.45 | 66 | 1014.1 |
| 20260507000007 | 50 | 286 | 1.0 | 5.0 | 0.00 | 0.45 | 0.45 | 67 | 1014.0 |
| 20260506234505 | 50 | 296 | 1.0 | 8.0 | 0.00 | 0.45 | 0.45 | 66 | 1013.6 |
| 20260506233003 | 51 | 272 | 2.0 | 9.0 | 0.00 | 0.45 | 0.45 | 65 | 1013.5 |
| 20260506231501 | 51 | 340 | 5.0 | 9.0 | 0.00 | 0.45 | 0.45 | 65 | 1013.1 |
| 20260506230100 | 52 | 350 | 4.0 | 14.0 | 0.00 | 0.45 | 0.45 | 64 | 1012.9 |
| 20260506230001 | 52 | 351 | 5.0 | 14.0 | 0.00 | 0.45 | 0.45 | 63 | 1012.9 |
| 20260506224557 | 53 | 309 | 4.0 | 8.0 | 0.00 | 0.45 | 0.45 | 66 | 1012.6 |
| 20260506223100 | 53 | 268 | 3.0 | 9.0 | 0.00 | 0.45 | 0.45 | 67 | 1012.7 |
| 20260506221556 | 53 | 280 | 0.0 | 9.0 | 0.00 | 0.45 | 0.45 | 73 | 1012.4 |
| 20260506220052 | 53 | 340 | 2.0 | 11.0 | 0.00 | 0.45 | 0.45 | 71 | 1012.3 |
| 20260506214551 | 52 | 274 | 4.0 | 9.0 | 0.00 | 0.45 | 0.45 | 72 | 1012.2 |
| 20260506213050 | 52 | 240 | 1.0 | 9.0 | 0.00 | 0.45 | 0.45 | 74 | 1012.1 |
| 20260506211549 | 53 | 349 | 3.0 | 9.0 | 0.00 | 0.45 | 0.45 | 76 | 1012.0 |
| 20260506210046 | 53 | 310 | 3.0 | 9.0 | 0.00 | 0.45 | 0.45 | 74 | 1011.3 |
| 20260506204554 | 54 | 266 | 1.0 | 9.0 | 0.00 | 0.45 | 0.45 | 75 | 1011.4 |
| 20260506203021 | 53 | 328 | 1.0 | 8.0 | 0.00 | 0.45 | 0.45 | 77 | 1011.4 |